Weather History for North Las Vegas, NV

Change the Weather History Date:

Tuesday, January 3, 2012

  Actual Average Record
Temperature  
Mean Temperature 54 °F -  
Max Temperature 64 °F 59 °F 67 °F (1956)
Min Temperature 44 °F 39 °F 8 °F (1952)
Degree Days  
Heating Degree Days 11    
Growing Degree Days 4 (Base 50)    
Moisture  
Dew Point 17 °F    
Average Humidity 25    
Maximum Humidity 36    
Minimum Humidity 15    
Precipitation  
Precipitation 0.00 in - - ()
Sea Level Pressure  
Sea Level Pressure 30.38 in    
Wind  
Wind Speed 5 mph (NW)    
Max Wind Speed 13 mph    
Max Gust Speed -    
Visibility 10 miles    
Events      
Averages and records for this station are not official NWS values.
T = Trace of Precipitation, MM = Missing Value Source: NWS Daily Summary

Daily Weather History Graph

Daily Weather History Graph

Search for Another Location

Airport:

Trip Planner

Search our weather history database for the weather conditions in past years. The results will help you decide how hot, cold, wet, or windy it might be!

Date:

Astronomy

Jan. 03, 2012 Rise Set
Actual Time 6:52 AM PST 4:38 PM PST
Civil Twilight 6:23 AM PST 5:06 PM PST
Nautical Twilight 5:51 AM PST 5:38 PM PST
Astronomical Twilight 5:20 AM PST 6:10 PM PST
Moon 12:25 PM PST (1/3) 1:50 AM PST (1/3)
Length of Visible Light 10h 43m
Length of Day
9h 46m
Waxing Gibbous, 73% of the Moon is Illuminated
Jan 3
Waxing Gibbous
Jan 8
Full
Jan 16
Last Quarter
Jan 22
New
Jan 30
First Quarter

Hourly Weather History & Observations

Time (PST) Temp. Windchill Dew Point Humidity Pressure Visibility Wind Dir Wind Speed Gust Speed Precip Events Conditions
12:53 AM 44.1 °F 40.8 °F 17.1 °F 34% 30.35 in 10.0 mi NW 5.8 mph - N/A   Clear
1:53 AM 50.0 °F - 12.9 °F 23% 30.37 in 10.0 mi NNW 12.7 mph - N/A   Clear
2:53 AM 51.1 °F - 12.9 °F 22% 30.37 in 10.0 mi North 9.2 mph - N/A   Clear
3:53 AM 46.9 °F - 17.1 °F 30% 30.36 in 10.0 mi SW 5.8 mph - N/A   Clear
4:53 AM 48.0 °F - 18.0 °F 30% 30.38 in 10.0 mi NNW 9.2 mph - N/A   Clear
5:53 AM 44.1 °F 41.5 °F 16.0 °F 32% 30.37 in 10.0 mi WNW 4.6 mph - N/A   Clear
6:53 AM 44.1 °F 40.1 °F 16.0 °F 32% 30.40 in 10.0 mi NNW 6.9 mph - N/A   Clear
7:53 AM 46.9 °F - 14.0 °F 27% 30.41 in 10.0 mi NW 3.5 mph - N/A   Clear
8:53 AM 51.1 °F - 17.1 °F 26% 30.44 in 10.0 mi Calm Calm - N/A   Clear
9:53 AM 55.9 °F - 17.1 °F 22% 30.45 in 10.0 mi SE 3.5 mph - N/A   Clear
10:53 AM 59.0 °F - 16.0 °F 19% 30.42 in 10.0 mi Calm Calm - N/A   Clear
11:53 AM 62.1 °F - 15.1 °F 16% 30.38 in 10.0 mi Calm Calm - N/A   Clear
12:53 PM 63.0 °F - 15.1 °F 16% 30.35 in 10.0 mi South 4.6 mph - N/A   Clear
1:53 PM 64.0 °F - 15.1 °F 15% 30.32 in 10.0 mi Calm Calm - N/A   Clear
2:53 PM 64.9 °F - 15.1 °F 15% 30.33 in 10.0 mi SE 4.6 mph - N/A   Clear
3:53 PM 64.9 °F - 15.1 °F 15% 30.35 in 10.0 mi Calm Calm - N/A   Clear
4:53 PM 62.1 °F - 15.1 °F 16% 30.35 in 10.0 mi Calm Calm - N/A   Clear
5:53 PM 57.9 °F - 16.0 °F 19% 30.37 in 10.0 mi Calm Calm - N/A   Clear
6:53 PM 53.1 °F - 21.9 °F 30% 30.39 in 10.0 mi WNW 6.9 mph - N/A   Clear
7:53 PM 51.1 °F - 21.0 °F 31% 30.39 in 10.0 mi Calm Calm - N/A   Clear
8:53 PM 48.0 °F - 21.9 °F 36% 30.41 in 10.0 mi NW 6.9 mph - N/A   Clear
9:53 PM 48.0 °F - 21.9 °F 36% 30.41 in 10.0 mi NNW 5.8 mph - N/A   Clear
10:53 PM 48.9 °F - 19.9 °F 32% 30.41 in 10.0 mi NW 4.6 mph - N/A   Clear
11:53 PM 46.4 °F 44.3 °F 15.8 °F 29% 30.36 in 10.0 mi NNW 4.6 mph - N/A   Clear